Regional Weather Roundup
Issued by NWS

Home | Current Version | Previous Version | Text Only | Print | Product List | Glossary On
Versions: 1 2 3 4 5 6 7 8 9 10 11 12 13 14 15 16 17 18 19 20 21 22 23 24 25 26 27
000
ASPQ40 PGUM 301512
RWRPQ
WEATHER ROUNDUP FOR THE MARIANAS AND MICRONESIA
NATIONAL WEATHER SERVICE TIYAN GU
100 AM CHST FRI OCT 31 2014

GUZ001>004-301600-
MARIANA ISLANDS-

CITY           SKY/WX    TMP DP  RH WIND       PRES   REMARKS
GUAM AIRPORT   LGT RAIN  79  75  89 E9        29.78F
ANDERSEN AFB   LGT RAIN  77  75  94 E13G20    29.79F
ROTA AIRPORT   NOT AVBL
TINIAN AP      NOT AVBL
SAIPAN AP      PTCLDY    81  77  89 SE9       29.79F

$$

PMZ161-301600-
REPUBLIC OF PALAU-

CITY           SKY/WX    TMP DP  RH WIND       PRES   REMARKS
KOROR AP       MOCLDY    81  77  89 NW3       29.77F
KOROR WSO      CLOUDY    82  77  83 W6        29.76F HX  91

$$

PMZ171>174-301600-
FEDERATED STATES OF MICRONESIA-

CITY           SKY/WX    TMP DP  RH WIND       PRES   REMARKS
YAP AIRPORT    MOCLDY    81  77  89 VRB5      29.71F
CHUUK AP       CLOUDY    79  75  89 VRB7      29.77F
POHNPEI AP     NOT AVBL
POHNPEI WSO    PTCLDY    75  73  94 SE3       29.82F
KOSRAE AP      NOT AVBL

$$

PMZ181-301600-
REPUBLIC OF THE MARSHALL ISLANDS-

CITY           SKY/WX    TMP DP  RH WIND       PRES   REMARKS
KWAJALEIN AP   CLEAR     82  75  78 N6        29.80S
MAJURO AP      NOT AVBL
MAJURO WSO     MOCLDY    82  77  83 N7        29.76F HX  91

$$




USA.gov is the U.S. government's official web portal to all federal, state and local government web resources and services.